RH
7 5 4 5 6 6 5 4 3 3 3 3 3 3 4 4 5 5 5 6 6 6 6 6 6 6 5 5 5 5 5 4 4 3 3 3 2 2 2 2 2 2 2 2 3 3 4 4 3 3 3 5 5 6 7 7 8 5 5 6 7 8 9 18 26 22 16 19 23 19 30 46 45 40 37 34 30 23 20 19 17 17 16 12 9 6 9 18
22 15 8 5 4 4 4 4 4 4 3 3 4 4 4 5 5 5 6 6 6 7 7 7 6 6 6 6 6 5 5 4 4 3 3 3 2 3 2 2 3 3 3 3 4 4 5 4 4 4 5 7 7 8 8 8 9 6 7 7 8 11 10 24 34 27 20 20 24 20 33 55 52 45 39 31 29 21 20 20 19 19 14 11 10 7 18 32
20 20 16 11 7 5 4 4 4 4 4 4 4 4 5 5 6 6 6 7 7 7 7 8 7 7 7 6 6 6 5 4 4 3 3 3 2 3 3 3 4 4 5 5 6 6 6 6 6 7 7 9 10 10 10 11 10 8 9 7 10 13 11 29 40 32 23 21 26 25 37 55 54 52 44 30 25 20 18 16 15 16 12 12 11 7 16 27
11 12 13 12 10 8 6 5 4 4 4 4 4 5 5 5 6 6 7 7 8 8 8 8 8 8 8 7 7 6 5 4 4 4 3 3 3 4 4 5 6 7 8 9 9 8 8 8 9 9 9 11 13 11 12 13 12 10 10 8 12 13 16 39 47 35 28 25 25 29 42 52 51 54 46 33 26 20 16 13 12 14 12 12 10 8 13 19
13 10 9 8 8 7 6 5 4 4 4 5 5 5 5 6 6 7 7 8 8 9 9 9 9 9 8 8 7 6 6 4 4 4 4 5 5 5 6 7 8 10 12 12 12 11 11 11 11 12 13 15 14 14 15 16 14 13 11 10 14 12 22 50 50 37 34 30 24 28 46 54 51 52 44 34 28 22 15 12 15 15 14 13 10 10 20 31
11 9 7 6 6 6 5 5 5 5 5 5 5 5 6 6 6 7 7 8 8 9 9 10 10 9 9 8 7 7 5 4 4 4 5 5 5 5 6 8 10 12 13 14 14 15 15 14 15 16 17 18 17 17 18 18 15 15 13 13 16 11 26 54 52 41 38 35 29 27 40 53 54 51 45 34 24 21 17 15 17 16 16 16 12 11 25 39
9 8 7 7 6 6 6 6 6 5 5 5 5 6 6 6 6 7 7 8 8 9 10 10 10 10 10 9 8 7 6 5 4 4 4 4 4 4 5 7 9 11 13 15 18 19 18 18 19 20 20 20 20 21 21 21 17 16 16 14 16 14 24 49 55 49 43 38 31 27 33 47 56 53 49 39 26 21 22 22 18 14 14 15 16 16 21 34
12 10 9 8 7 7 7 7 6 6 5 5 5 6 6 6 6 7 7 8 8 9 9 10 10 10 10 9 8 7 6 5 4 4 4 4 4 3 4 6 8 11 15 18 21 23 23 24 25 23 23 24 23 23 24 23 20 18 18 17 17 15 21 43 57 55 51 42 31 28 31 41 52 54 52 45 35 29 27 26 19 11 10 12 21 25 27 38
20 18 15 13 11 10 9 8 7 7 6 6 5 6 6 6 6 7 7 7 8 9 9 10 10 11 10 9 8 7 6 6 5 4 4 4 4 4 4 6 8 12 17 20 24 26 28 28 28 27 26 27 25 25 26 24 22 20 19 19 19 18 18 35 55 57 53 47 35 32 32 35 40 42 46 41 34 33 29 28 23 14 9 8 15 24 39 52
25 24 23 21 20 17 15 13 10 8 7 6 6 6 5 6 6 6 7 7 8 8 9 9 10 11 10 10 9 7 7 6 5 5 5 4 4 4 4 7 10 17 22 25 28 31 32 31 29 29 28 28 27 26 26 24 23 22 21 20 19 20 17 27 50 57 53 49 41 35 31 33 33 31 37 33 28 31 31 32 27 17 12 9 7 18 44 61
24 24 23 23 23 22 20 18 16 13 10 8 7 6 5 5 6 6 7 7 7 8 9 9 10 10 10 10 9 8 8 7 6 5 5 5 5 4 5 7 12 22 31 34 37 36 34 33 31 30 29 29 28 27 27 25 25 24 22 20 19 20 18 22 41 55 53 47 42 36 27 26 30 31 35 33 28 31 32 31 27 21 16 10 8 27 55 69
23 22 22 22 21 21 20 19 18 15 13 10 8 7 6 5 5 6 6 7 7 7 8 9 9 10 9 9 9 9 8 7 7 6 6 5 4 4 5 7 13 26 38 43 46 43 38 37 34 31 30 29 28 28 27 26 25 25 24 23 21 21 20 19 29 45 49 43 40 36 23 17 22 28 30 28 24 24 24 22 21 19 17 17 23 46 69 75
25 24 23 22 21 21 20 19 18 16 14 12 10 8 7 6 5 5 6 6 7 7 8 8 9 9 9 9 9 10 9 8 7 6 6 5 5 4 5 8 13 25 38 46 51 48 44 43 39 35 33 29 28 28 27 26 25 25 25 23 22 21 21 20 21 31 39 39 39 34 22 14 17 20 21 21 16 15 15 14 16 14 14 21 29 49 69 79
27 26 25 24 23 22 21 20 19 17 16 14 12 10 8 6 5 5 5 6 6 7 7 8 8 9 9 9 10 10 9 9 7 7 7 5 6 4 4 8 13 23 34 41 45 46 47 47 45 42 38 33 30 28 27 27 26 25 25 22 22 20 20 22 20 22 28 31 36 32 19 12 16 17 17 18 14 13 12 12 15 13 16 27 40 58 73 83
30 29 28 26 25 24 23 21 20 19 18 16 14 12 10 8 6 5 5 6 6 7 7 7 8 8 9 9 10 10 10 9 8 7 7 6 7 5 5 9 14 22 31 36 40 43 45 46 47 46 45 40 33 30 28 27 26 25 25 23 23 22 20 22 21 21 22 24 27 26 17 13 17 18 18 19 15 14 13 13 14 14 20 30 47 65 67 65
31 30 30 29 28 27 26 25 24 22 20 18 16 13 11 9 7 6 5 5 6 6 7 7 8 8 9 10 10 11 10 10 9 9 8 7 7 6 6 9 14 19 26 31 34 36 36 40 46 47 47 45 40 37 31 28 27 25 25 24 23 22 21 21 21 21 21 21 22 22 19 16 17 18 18 19 17 15 14 15 14 14 18 19 29 43 38 32
33 32 32 31 31 30 30 29 29 28 26 24 21 18 14 11 9 7 6 5 6 6 6 7 7 8 9 11 12 12 12 12 11 10 9 7 7 7 7 10 16 19 21 25 26 28 29 32 40 44 44 45 47 46 37 29 27 26 25 24 23 23 22 21 21 22 21 20 21 20 20 18 17 19 18 18 18 16 16 16 16 17 17 17 24 27 20 18
35 34 33 32 31 31 30 30 30 29 28 27 25 22 19 16 12 8 6 6 6 6 6 6 7 8 10 12 13 12 13 13 12 10 9 9 8 7 7 12 17 20 21 23 24 25 27 28 32 38 41 42 45 47 41 34 31 30 27 25 25 24 23 22 23 26 25 22 21 20 20 19 18 18 18 19 19 17 17 16 20 23 24 30 33 24 17 17
36 35 34 32 31 31 30 30 30 29 30 29 27 24 21 20 16 12 8 6 6 6 7 6 7 8 10 12 13 14 14 13 12 11 10 10 9 8 8 11 17 22 24 25 28 31 32 30 27 29 35 38 42 45 43 41 41 36 31 28 27 25 25 23 23 26 26 24 22 20 20 19 19 19 17 19 18 18 18 17 26 35 39 45 37 24 24 26
36 35 34 32 32 31 30 30 28 28 29 29 30 27 23 21 18 15 12 8 6 7 6 7 7 9 12 13 13 14 14 14 13 12 11 11 10 10 10 11 16 22 26 31 37 41 39 33 28 26 32 37 40 44 44 44 46 43 37 33 29 27 26 24 23 23 22 22 21 22 22 20 20 19 21 23 21 19 19 19 28 39 48 50 36 26 34 39
36 35 33 33 32 31 30 29 28 27 26 25 28 28 26 23 17 16 16 10 7 7 7 7 7 9 14 14 11 13 13 13 15 15 13 12 12 12 12 14 16 22 31 38 43 42 34 29 32 36 39 42 44 45 43 42 45 45 42 38 35 32 28 25 24 26 28 24 19 21 24 25 25 25 32 36 28 20 20 24 28 35 46 45 32 33 44 47
35 34 32 31 30 29 29 28 27 25 23 22 23 24 26 27 21 17 16 11 8 8 7 7 7 9 14 14 11 12 12 15 18 18 16 14 14 15 16 18 20 27 37 40 40 37 31 33 42 48 47 45 47 47 45 43 43 44 43 42 39 35 32 30 26 30 38 29 19 24 27 27 30 32 38 42 37 28 23 28 32 37 43 36 29 36 45 48
33 32 31 31 30 30 30 29 28 25 22 20 19 19 21 26 27 23 17 11 9 9 7 7 8 7 11 16 15 12 13 17 18 19 19 17 17 16 18 24 27 31 39 41 40 38 40 45 50 52 49 45 46 47 48 46 43 41 40 41 39 36 35 31 27 29 36 31 24 30 34 33 35 35 36 40 44 39 31 33 37 44 48 39 34 42 47 50
31 31 31 32 33 34 35 35 35 34 31 26 22 18 17 19 24 26 23 14 8 8 8 7 8 8 10 16 16 13 15 18 19 22 22 21 20 17 20 29 33 37 42 44 43 43 47 50 50 49 48 47 46 47 47 46 44 41 39 39 36 37 35 28 33 35 33 39 36 34 41 41 36 34 35 40 45 42 39 41 45 49 48 42 40 46 50 55
31 32 32 34 37 38 38 38 39 40 41 39 35 29 23 18 16 20 24 21 14 11 9 7 7 9 10 13 15 15 17 18 19 22 23 25 25 21 24 27 32 41 46 46 47 47 49 50 48 47 46 45 44 45 46 44 42 38 38 39 34 35 30 24 44 50 42 51 50 41 47 44 37 36 38 42 44 42 43 46 49 48 44 45 48 51 55 61
34 35 37 41 44 43 42 42 41 42 43 43 42 40 35 29 22 17 18 21 19 15 13 10 10 12 12 13 15 17 17 19 21 20 22 26 27 27 29 27 31 40 44 47 48 48 50 50 47 46 44 43 42 43 42 40 38 33 32 33 30 29 22 23 52 61 50 57 55 45 47 45 41 42 42 45 45 43 46 49 48 46 48 55 58 58 62 63
39 40 42 46 47 44 44 43 41 42 43 43 43 42 41 38 33 27 22 22 23 24 23 16 11 15 20 19 18 20 21 22 23 22 23 26 28 31 32 30 33 39 44 47 45 44 48 47 46 43 40 40 40 37 36 35 32 27 23 20 21 21 18 35 62 60 47 54 58 49 44 44 46 45 44 47 48 45 46 48 46 46 53 59 60 61 61 58
44 44 45 46 46 43 42 42 40 40 41 42 42 41 41 41 39 36 31 30 35 43 50 44 28 19 22 23 22 25 28 32 35 31 29 30 30 32 33 32 34 39 44 45 42 44 46 46 45 40 35 35 35 33 31 29 26 25 25 24 24 21 27 55 71 59 50 53 60 57 46 46 53 54 52 52 52 49 47 46 43 42 50 54 55 57 53 50
45 44 44 44 43 42 41 40 39 40 40 40 40 40 42 42 41 39 38 39 43 47 57 67 57 42 35 31 31 32 29 36 45 41 38 38 35 35 36 34 36 39 43 43 42 45 45 46 48 43 40 35 32 34 31 30 32 32 34 33 31 25 31 62 78 73 69 60 57 63 56 51 56 60 61 59 56 54 50 47 43 41 47 51 51 50 49 52
43 42 42 42 44 43 42 42 40 39 41 40 40 40 41 41 40 42 41 39 40 41 47 59 59 56 53 45 44 49 45 43 45 42 42 42 36 36 39 36 36 38 40 41 42 44 44 46 47 48 47 38 36 37 31 33 36 35 38 39 38 31 27 54 81 85 82 67 57 65 64 56 54 57 61 60 59 58 54 50 47 44 45 50 53 52 54 60
44 44 43 43 45 44 42 43 41 40 41 40 40 39 38 38 37 39 37 37 44 47 51 54 47 47 55 54 46 45 49 51 50 45 42 40 35 33 36 38 38 37 37 39 39 42 45 44 46 50 49 40 38 38 34 34 30 34 47 42 36 35 30 50 80 87 81 69 62 70 75 70 64 62 63 61 59 58 56 54 53 49 48 51 56 61 67 73
46 46 45 43 43 42 39 38 36 37 36 35 35 33 32 31 28 28 27 31 41 50 64 67 51 42 50 63 60 47 45 51 56 58 50 42 38 35 35 39 43 41 39 40 40 42 44 44 44 48 50 46 41 44 49 41 26 31 43 33 26 31 35 53 77 83 78 67 65 77 83 80 70 59 55 55 56 55 52 51 56 58 58 59 63 72 81 86
45 43 40 37 35 31 29 27 25 26 25 24 23 21 24 21 17 19 16 20 36 56 77 76 59 47 40 51 70 67 60 55 55 67 63 45 38 38 40 43 45 46 43 40 39 39 40 43 44 45 54 53 44 52 60 45 30 28 29 27 28 29 35 58 77 79 76 67 67 78 82 77 64 47 42 46 50 55 49 44 52 62 67 69 74 82 88 89
37 31 26 22 19 16 14 12 11 12 10 11 10 9 11 10 9 11 7 21 50 64 70 70 71 69 49 52 84 90 83 74 62 67 66 49 41 40 43 48 47 45 45 41 39 38 38 41 47 54 65 59 47 55 63 57 52 42 31 34 41 39 39 55 71 71 68 63 66 76 79 74 61 45 45 50 52 55 55 53 56 62 70 77 82 86 87 86
20 15 11 8 8 6 5 5 5 5 4 5 5 4 6 5 5 7 2 14 38 42 45 63 86 91 68 66 94 101 97 95 86 83 78 62 52 45 51 69 64 49 47 44 40 40 38 40 52 66 72 64 58 60 61 71 76 54 36 35 38 43 44 47 58 63 62 61 65 76 79 71 61 53 53 58 60 61 60 63 66 66 73 79 81 84 84 83
8 6 5 4 5 4 4 5 4 4 4 4 5 4 6 5 4 7 5 5 14 24 44 76 97 99 82 77 93 100 97 95 95 98 95 85 76 63 64 84 83 62 53 49 45 45 41 40 53 70 73 64 63 65 62 77 90 67 50 46 41 49 55 58 69 73 68 64 62 70 78 70 60 55 50 48 56 66 64 60 63 64 68 74 75 77 80 83
5 6 6 5 6 6 6 6 6 6 6 6 7 6 6 8 5 6 7 5 6 16 42 79 101 101 95 94 99 99 94 92 94 95 95 95 92 83 77 79 81 72 60 50 45 48 50 47 51 67 79 71 61 64 68 76 85 80 73 66 60 65 66 69 86 88 77 69 60 60 69 71 61 50 45 37 35 53 67 62 55 58 68 75 77 76 77 83
7 8 8 6 7 8 7 7 7 7 8 6 7 7 6 7 7 7 8 6 6 7 16 44 75 90 98 104 102 94 88 91 92 87 89 91 88 91 91 82 77 72 63 56 50 48 51 53 53 62 81 85 69 66 74 71 66 75 84 78 73 78 70 65 82 92 82 73 66 61 62 65 61 48 42 37 26 40 68 70 58 65 79 82 82 84 82 86
8 9 8 7 8 9 8 9 9 9 11 10 10 11 10 9 8 8 8 7 7 7 4 11 34 58 80 95 101 97 90 88 88 84 85 88 87 92 95 88 85 78 70 72 68 56 48 47 54 63 74 82 78 75 79 76 67 71 83 80 73 78 74 65 72 80 81 79 73 69 67 62 57 46 39 44 47 52 68 74 68 73 83 82 85 91 89 89
9 9 9 9 10 11 10 10 13 14 15 16 15 14 13 12 11 8 7 7 6 7 7 6 12 28 49 69 84 95 91 81 82 84 82 84 89 95 95 90 91 90 84 82 76 65 55 47 53 70 78 77 85 90 81 76 78 75 79 82 76 74 74 71 75 75 78 87 84 76 72 62 54 48 43 58 74 66 56 67 79 81 84 87 90 92 90 89
10 10 10 9 8 9 8 7 9 10 11 11 11 11 11 11 11 9 7 7 6 6 6 7 7 14 31 44 54 79 89 74 71 79 81 82 86 93 98 94 93 95 95 90 80 67 60 52 51 71 87 85 91 101 86 75 83 77 72 78 78 75 72 71 79 76 70 81 88 81 73 60 53 56 59 70 81 66 47 55 75 84 85 88 88 87 87 88
11 9 9 8 7 6 6 6 7 7 8 8 8 9 9 9 10 12 11 9 7 7 5 6 7 9 21 27 32 61 85 80 76 82 81 81 81 84 89 89 89 93 97 95 85 68 56 52 50 63 86 92 93 100 93 87 90 79 68 71 69 71 75 75 77 71 62 70 78 80 78 67 58 65 74 74 66 59 54 54 65 79 85 85 84 82 82 83
10 8 8 8 7 6 6 7 7 7 8 7 7 8 8 10 10 17 28 30 21 14 8 5 7 8 10 13 19 45 76 92 94 87 77 74 75 78 81 81 81 84 92 100 96 80 62 53 50 57 77 93 98 99 96 95 92 80 77 80 72 65 68 75 80 71 64 68 68 68 73 70 63 67 78 75 60 59 68 68 72 81 86 88 83 77 75 76
9 8 8 7 7 6 7 8 7 7 7 6 8 9 11 14 14 21 45 57 46 36 25 10 4 7 7 7 9 25 58 92 102 90 79 74 72 75 79 79 80 80 86 96 99 92 79 62 53 57 71 90 102 101 97 100 96 81 79 81 72 67 71 76 81 75 66 65 65 62 63 66 68 71 76 74 67 72 78 78 85 88 84 88 87 77 70 69
9 9 9 8 8 7 7 8 7 7 8 8 11 15 18 22 21 24 42 57 57 60 58 39 19 9 7 6 9 16 37 74 100 97 84 77 73 75 74 71 74 80 85 89 92 96 92 74 58 59 67 80 98 101 93 98 96 75 73 83 72 69 82 82 77 73 66 62 64 64 63 65 69 71 73 74 79 90 88 82 93 94 81 84 91 86 76 68
8 9 10 9 9 9 7 7 7 7 10 14 17 22 25 28 29 31 38 42 42 51 62 64 56 43 28 17 18 24 28 48 85 102 96 86 80 75 70 65 68 76 80 82 87 97 101 87 69 67 72 73 87 99 90 90 93 72 68 90 88 74 79 80 71 65 62 66 72 73 72 72 71 71 72 73 78 90 90 82 88 89 81 84 91 91 86 76
8 9 10 10 10 9 8 8 7 6 11 18 23 29 33 33 30 34 43 44 41 42 44 51 63 71 68 53 42 42 34 31 60 94 103 98 90 81 73 67 70 77 78 74 78 88 98 98 85 78 81 77 80 94 88 80 90 86 76 85 95 89 80 78 71 53 42 50 63 70 76 77 77 78 78 76 77 84 85 82 86 90 89 89 89 90 88 80
9 10 11 11 10 9 8 9 8 7 9 15 26 34 39 42 38 35 38 38 44 56 54 48 53 64 73 74 68 63 52 38 49 81 102 103 97 90 82 73 71 77 77 72 74 79 86 97 97 87 87 88 84 89 90 78 78 88 89 85 90 93 83 78 75 55 34 32 39 48 59 62 64 68 68 68 72 75 76 77 81 85 85 84 85 88 85 79
11 12 13 12 12 11 10 9 9 8 8 15 31 41 42 45 45 41 37 29 29 47 61 63 64 65 65 68 71 70 65 54 53 70 92 104 103 97 92 84 75 71 70 72 81 86 83 87 95 95 93 94 90 86 90 87 75 74 88 95 95 95 87 79 76 65 49 41 37 41 47 46 46 49 48 52 61 64 69 78 80 81 84 88 90 92 88 83
12 14 15 14 14 13 12 11 9 9 9 18 36 46 44 45 49 50 50 39 21 25 47 63 68 68 68 73 78 77 69 60 54 59 73 87 96 99 96 89 82 76 71 73 84 95 94 89 93 99 98 96 96 92 88 87 76 65 75 94 101 101 96 85 77 70 63 58 51 48 50 45 43 45 44 51 62 69 78 89 91 91 95 99 97 92 88 85
13 15 16 16 16 15 13 12 11 9 9 16 31 44 47 48 51 55 59 53 30 18 34 54 61 61 64 73 82 82 72 57 49 57 69 75 82 93 94 87 88 89 79 73 83 95 100 98 96 99 101 100 100 98 91 88 85 75 76 91 101 103 102 94 85 77 74 73 67 62 60 55 52 52 51 58 73 83 89 97 99 99 101 102 97 92 88 85
15 17 18 18 19 17 15 14 13 11 9 10 19 33 42 45 45 48 58 62 47 29 29 43 55 58 60 68 75 74 67 56 49 62 84 91 87 89 90 88 91 92 85 81 87 91 93 99 100 99 102 103 100 99 95 94 93 86 81 90 98 101 102 99 94 90 88 86 83 78 72 66 61 59 60 71 87 92 95 101 102 101 101 100 95 91 89 89
Wind_Speed
27 27 28 29 29 30 30 31 31 31 31 31 31 31 30 30 30 29 29 29 29 28 28 29 29 29 29 30 30 30 30 30 30 30 30 30 29 29 29 28 27 26 27 26 24 23 23 24 25 26 27 27 27 28 29 29 30 31 30 27 23 20 19 21 27 29 29 32 33 32 23 13 22 26 29 32 34 36 35 37 35 28 28 29 28 25 23 24
30 29 28 28 29 29 30 30 31 31 31 31 31 30 30 30 29 29 29 28 28 28 28 28 28 28 29 29 29 29 29 29 29 29 29 29 29 28 27 27 26 25 25 24 23 22 22 23 24 25 25 26 27 28 29 29 30 30 29 26 20 16 18 24 30 30 31 33 33 33 22 10 20 25 28 32 34 37 37 37 34 28 27 29 30 26 24 24
30 30 30 29 29 29 30 30 31 31 31 31 30 30 30 29 29 29 28 28 28 28 28 28 28 28 28 28 29 29 29 29 29 29 28 27 28 27 27 26 25 24 24 22 21 21 21 22 22 23 24 26 27 28 29 29 31 30 29 25 18 16 21 28 31 33 34 34 34 32 23 12 17 23 29 32 34 36 38 36 31 29 27 26 27 26 25 25
29 30 30 30 30 30 30 31 31 31 31 30 30 30 30 29 29 29 28 28 27 27 27 27 27 27 27 28 28 28 28 29 28 28 27 27 27 27 26 26 25 24 22 20 19 20 20 20 21 22 24 25 27 28 28 29 30 30 29 23 18 21 26 30 31 34 34 35 36 31 20 14 17 24 31 33 34 37 38 33 26 27 25 20 21 22 24 26
30 30 30 31 31 31 31 31 31 31 31 31 30 30 30 30 29 29 29 28 27 27 27 27 27 27 27 27 27 27 27 28 27 26 26 26 27 27 27 25 23 22 20 18 19 19 19 19 20 22 23 24 27 28 27 28 29 30 29 23 21 25 30 33 33 36 35 35 38 32 20 14 16 23 32 35 36 37 35 28 23 25 22 18 18 19 22 25
30 30 30 30 31 31 31 31 31 31 31 31 31 31 30 30 30 30 29 28 28 27 27 26 26 26 26 26 27 27 27 27 26 26 25 26 26 27 26 24 22 20 18 18 18 18 18 19 20 21 22 24 26 26 26 28 30 30 28 25 24 25 32 35 34 37 36 34 37 35 26 19 18 21 30 37 38 37 32 26 23 25 22 19 19 21 24 25
29 29 29 30 30 31 31 31 32 32 32 32 32 32 31 31 31 30 30 29 28 28 27 27 26 26 26 26 26 26 26 26 25 24 24 25 26 26 25 23 22 20 18 18 17 18 19 19 19 21 22 24 25 25 27 29 31 31 29 26 25 27 33 36 36 36 36 35 36 36 31 26 22 23 28 33 35 35 32 27 24 22 22 21 21 23 25 26
27 28 28 29 30 30 31 32 32 32 32 33 33 33 33 32 32 32 31 30 29 28 28 27 27 27 26 25 25 25 26 26 25 24 23 24 25 25 25 24 22 20 19 17 17 18 18 18 19 21 22 24 26 26 28 30 32 31 28 27 26 28 34 37 37 36 36 37 37 36 34 30 27 29 30 31 32 32 30 28 25 22 22 23 21 22 23 24
26 26 27 28 29 30 30 31 32 32 33 33 33 34 34 33 33 33 32 31 30 29 28 27 27 26 26 25 24 25 25 25 25 24 23 23 23 25 25 24 22 20 19 18 18 18 18 19 21 22 23 25 27 27 29 31 32 30 28 28 28 30 35 39 39 37 36 36 38 37 35 34 33 34 35 35 34 31 29 28 27 24 24 25 24 22 22 22
27 27 27 28 28 29 30 31 31 32 33 34 34 35 35 34 34 34 33 32 31 30 29 28 27 26 26 25 24 25 24 24 24 23 22 22 22 24 25 24 22 20 19 18 18 18 20 21 22 23 24 26 26 27 29 30 31 30 30 30 30 32 36 41 42 39 35 35 38 39 37 36 34 34 35 36 34 32 32 31 30 26 24 26 26 23 22 22
28 28 29 29 29 29 30 30 31 32 33 34 34 35 35 35 35 35 34 33 32 31 30 29 27 26 26 25 25 24 22 22 23 22 23 23 23 24 24 24 23 21 20 18 19 20 21 22 23 24 23 24 25 27 29 30 30 31 31 31 31 32 35 41 45 42 38 38 39 40 41 37 30 31 31 32 33 33 34 35 31 27 24 26 25 22 22 22
28 29 29 29 29 30 30 30 31 31 32 33 34 35 35 36 36 35 35 34 33 32 31 29 28 27 25 25 26 24 22 22 22 22 22 23 23 24 23 23 23 22 21 20 20 21 22 23 24 24 23 24 26 28 29 30 30 30 30 31 30 31 33 38 44 45 43 43 41 41 44 36 25 23 23 26 32 31 32 31 29 26 24 26 25 22 22 22
27 27 27 28 28 29 29 30 31 31 32 33 33 34 35 36 36 36 36 35 34 33 32 30 28 27 25 26 25 24 23 23 22 22 22 22 23 24 24 24 24 23 23 23 22 23 23 23 24 23 23 24 25 27 28 28 30 30 31 31 30 30 31 33 39 44 45 45 44 44 44 33 23 19 17 24 31 29 28 26 24 25 24 25 26 24 22 21
26 26 26 27 27 28 29 29 30 31 32 32 33 34 35 36 36 37 36 36 35 34 33 31 29 27 26 26 25 23 24 23 22 21 21 20 22 25 24 24 24 24 25 25 24 25 25 25 25 24 24 24 24 25 26 27 29 29 31 31 30 29 27 28 34 40 44 45 43 43 40 31 24 21 17 24 31 28 26 24 23 24 23 23 23 22 20 21
26 26 26 26 27 27 28 29 30 31 31 32 33 34 35 35 36 37 37 36 36 35 34 31 30 28 27 26 25 24 24 23 22 22 20 18 20 24 24 24 25 25 26 26 25 26 27 27 27 25 25 24 24 25 25 26 27 27 29 29 27 27 24 25 29 33 37 39 39 41 37 28 22 20 18 22 29 29 26 24 24 24 23 22 21 20 19 21
26 26 26 27 27 28 29 29 30 31 31 32 33 34 34 35 36 37 37 37 37 35 34 32 31 29 27 25 25 24 23 23 23 22 20 18 20 24 25 24 25 26 26 26 26 26 27 29 28 27 26 25 24 24 25 26 27 26 26 25 25 25 23 23 26 28 29 31 33 36 36 28 20 19 19 22 27 29 27 25 24 23 24 23 20 21 21 24
27 27 27 27 28 28 29 30 30 31 32 32 33 34 34 35 36 36 36 37 37 36 35 33 31 30 28 25 24 24 23 22 22 21 20 20 21 23 25 25 26 26 25 25 25 24 26 28 29 29 27 27 25 24 25 26 24 23 24 24 23 24 23 22 21 23 24 26 28 31 33 28 20 19 20 23 26 28 28 26 24 24 24 22 20 20 22 25
28 28 28 28 28 28 29 29 30 31 32 32 33 34 34 35 35 36 36 36 36 36 35 33 32 30 27 25 24 24 23 22 21 21 21 20 21 22 24 26 26 25 24 24 23 23 24 26 28 30 28 27 27 27 25 23 20 21 23 23 22 22 23 22 21 21 21 23 25 27 30 26 20 19 20 22 25 28 29 28 25 23 20 19 19 19 22 25
28 28 28 28 28 28 28 29 30 31 31 32 32 33 34 35 35 35 35 35 35 36 35 34 32 29 27 26 25 24 23 23 21 21 21 20 21 22 23 25 26 26 24 23 22 23 23 24 26 28 28 26 26 27 26 23 21 21 23 24 23 23 23 24 23 23 22 21 21 23 25 22 19 19 20 21 24 26 29 30 27 22 18 19 21 20 21 24
28 28 28 27 27 28 28 28 29 30 31 31 32 32 33 33 34 35 34 34 35 36 36 34 32 29 27 27 26 24 23 23 21 19 19 20 20 21 23 24 26 25 23 22 23 23 24 23 22 22 24 25 26 27 27 26 25 24 24 24 24 23 23 23 23 24 24 24 22 20 20 20 19 20 18 18 22 25 27 31 29 23 21 23 22 20 21 24
28 27 27 27 27 27 27 27 28 28 29 30 30 30 31 31 32 34 33 32 33 34 35 35 33 28 24 26 27 25 24 22 19 18 18 20 20 21 22 23 25 24 23 23 24 24 23 20 18 18 22 25 26 26 26 27 27 27 26 25 24 23 22 21 20 21 22 26 26 21 19 19 18 20 15 12 19 25 25 29 31 27 25 26 23 22 23 24
26 26 26 26 25 25 25 26 26 26 26 27 27 28 29 29 30 31 32 30 29 31 34 34 34 28 23 26 27 25 23 20 18 17 18 19 19 21 23 23 24 23 24 25 24 23 21 16 16 20 23 25 25 25 25 26 27 29 29 28 26 23 23 21 20 20 20 24 27 23 22 19 18 20 14 7 14 23 26 28 30 28 27 26 23 21 22 22
25 25 25 24 24 24 24 25 24 24 24 24 24 25 26 28 29 29 30 30 26 28 32 32 32 30 24 23 26 25 22 19 17 16 18 19 18 22 24 22 22 24 25 24 23 21 18 17 19 22 23 23 24 24 24 25 26 28 29 29 27 25 25 21 19 21 22 24 25 23 21 17 16 18 15 9 12 22 28 29 26 25 26 27 23 22 23 23
24 24 24 23 23 23 24 24 23 23 23 23 23 23 24 25 27 27 28 28 24 21 27 30 30 29 23 22 25 25 21 19 18 16 18 19 18 20 22 21 22 23 23 23 22 20 18 20 21 20 21 23 24 24 23 23 23 25 26 26 26 25 24 20 18 23 25 24 24 23 19 18 18 18 16 11 14 24 31 28 25 24 25 25 24 25 24 23
23 24 24 23 23 23 24 24 23 22 22 23 23 23 23 23 23 24 25 26 22 17 20 27 27 24 23 23 24 24 23 20 17 17 19 19 18 20 21 22 22 22 22 22 23 20 19 22 21 19 20 21 23 23 23 22 22 23 23 24 24 23 22 20 20 24 26 24 23 23 19 17 19 18 17 14 16 26 30 27 25 25 25 22 20 22 23 24
23 24 24 23 23 24 24 23 23 22 22 22 23 24 23 22 22 21 22 23 20 16 16 21 23 21 21 22 23 24 24 20 17 20 20 17 18 21 21 20 20 21 22 23 23 20 20 22 20 20 21 21 21 22 22 22 22 22 22 22 23 21 21 22 24 27 28 24 23 25 19 15 17 18 18 17 18 28 30 27 27 26 23 20 19 22 24 26
24 24 24 23 24 25 24 24 23 23 22 22 23 24 23 23 22 21 22 21 18 16 14 15 18 18 18 22 23 21 20 18 18 21 19 16 18 20 20 19 18 20 23 25 22 20 21 21 20 20 21 21 21 21 22 22 22 21 20 21 22 21 23 25 26 28 30 27 23 25 23 19 20 21 21 20 19 30 34 31 30 29 23 21 22 25 27 27
24 25 25 25 25 26 25 24 24 24 23 22 23 24 23 23 23 22 23 20 16 13 10 10 14 16 17 20 19 16 16 14 14 18 17 16 18 20 18 17 17 19 23 24 21 18 20 21 20 21 20 20 20 21 22 22 22 20 18 21 21 21 26 29 30 28 29 29 25 24 25 25 25 24 23 22 21 28 35 36 35 31 27 25 25 25 26 27
25 26 26 25 25 25 25 24 24 24 23 23 23 22 22 22 23 22 23 19 15 12 8 6 10 14 16 17 15 14 16 14 14 19 18 15 17 19 18 17 17 20 23 23 21 19 20 20 21 22 22 21 20 20 22 21 19 16 15 19 21 23 29 33 31 26 25 29 28 26 28 29 29 26 24 24 23 26 31 36 37 34 31 28 25 25 26 27
25 26 26 24 23 23 23 22 23 23 22 23 23 21 21 22 22 22 20 16 14 15 12 10 12 13 15 17 17 16 17 18 19 22 20 16 17 19 18 19 19 20 23 23 21 20 19 20 22 23 23 21 19 19 21 19 15 13 13 17 20 25 32 36 32 25 24 29 30 28 30 31 31 29 27 26 27 27 28 32 35 36 35 30 26 25 25 26
24 23 23 23 21 21 20 20 21 22 21 21 22 21 21 21 21 19 16 12 11 13 13 15 18 18 17 17 19 18 18 19 19 22 21 18 18 19 18 19 20 20 22 21 19 19 20 21 21 22 21 20 18 18 18 15 13 14 14 15 16 23 33 38 34 28 28 30 29 25 26 28 29 31 31 31 31 31 32 34 35 36 37 32 25 22 23 25
21 21 21 21 20 19 18 18 20 21 19 19 20 21 21 20 18 15 13 13 12 11 13 17 21 22 20 17 18 18 18 18 18 20 20 18 18 17 16 18 19 20 20 18 17 18 20 19 19 20 20 19 19 18 16 14 15 16 16 16 17 22 33 37 34 32 31 31 28 23 21 22 24 29 33 33 33 33 34 35 37 37 34 29 23 21 23 25
19 19 19 20 20 19 18 18 20 21 20 19 19 20 20 19 15 13 14 12 11 14 18 20 22 24 23 20 18 18 18 19 20 20 20 19 18 16 15 18 19 18 17 17 17 18 17 16 17 19 20 20 19 18 18 15 15 17 18 21 21 25 35 38 36 34 32 30 28 23 20 22 24 28 31 32 32 31 29 30 33 34 31 27 25 25 25 25
18 18 18 19 19 19 18 18 19 20 20 19 19 19 18 17 15 15 15 12 15 20 22 23 23 22 24 21 18 17 17 19 22 22 22 22 20 17 15 18 19 17 17 18 18 17 16 16 17 17 19 20 16 15 18 17 15 17 21 25 25 28 36 39 36 34 31 29 27 23 22 24 27 28 27 27 29 30 28 27 29 30 29 27 27 27 26 26
17 16 17 18 18 18 17 17 17 18 19 18 18 17 16 15 15 16 16 16 20 22 23 24 23 22 23 22 19 17 17 17 18 21 24 24 21 17 14 15 17 18 18 18 18 18 18 17 17 16 16 17 13 10 17 21 18 19 24 28 28 30 34 35 32 29 28 26 25 25 26 27 30 29 25 22 24 29 31 27 26 28 29 28 27 26 26 27
15 14 15 16 16 16 16 16 16 17 18 18 17 16 16 16 17 17 17 18 20 22 24 24 23 24 25 25 22 19 19 18 16 17 21 23 21 17 15 16 18 19 19 18 18 19 19 18 17 16 16 17 14 11 15 22 20 18 23 26 25 25 27 27 26 25 26 26 26 29 31 33 34 31 28 24 22 27 31 29 29 29 29 29 29 29 29 30
13 13 14 15 14 15 15 15 16 16 17 17 17 18 18 18 18 18 19 20 21 24 26 26 26 28 28 26 22 21 22 22 19 18 17 19 21 21 19 20 22 22 22 22 22 20 20 19 18 18 18 18 18 15 16 22 22 18 19 21 20 20 23 25 25 24 26 27 29 33 36 38 39 37 33 28 24 25 27 28 28 26 27 29 30 30 31 30
11 12 13 12 12 14 15 15 16 16 17 17 18 19 19 19 20 20 21 22 23 24 27 29 30 32 32 29 25 24 24 23 22 21 19 18 22 23 23 23 24 25 25 24 24 22 22 21 20 20 21 20 19 18 19 23 25 21 20 21 20 20 22 26 28 27 28 28 29 33 36 38 40 40 38 33 28 25 24 25 25 24 26 29 29 29 29 29
10 11 12 11 11 13 14 15 15 16 16 17 18 18 19 20 21 22 23 24 25 25 26 29 32 34 34 32 29 26 25 25 24 23 22 19 19 21 24 24 25 27 27 25 24 24 24 23 21 21 23 22 21 19 19 22 25 24 24 24 23 20 20 24 29 29 28 28 30 32 33 34 35 36 36 34 29 25 23 24 25 27 28 28 27 26 26 26
9 10 10 10 10 12 13 14 15 15 17 18 18 19 20 21 22 23 23 24 26 27 28 29 32 33 33 33 33 30 27 29 28 25 24 23 21 20 23 25 26 27 28 28 27 26 25 24 22 21 23 24 24 22 21 22 25 26 26 25 24 23 22 24 27 28 27 27 30 33 33 32 32 32 33 31 27 25 25 24 25 29 31 28 24 23 23 23
8 8 8 8 9 10 12 14 15 16 17 19 19 20 21 22 22 23 24 24 25 28 30 31 33 33 33 33 34 34 32 33 32 28 26 26 25 23 23 25 27 26 27 30 30 27 27 26 24 23 25 26 25 25 24 25 27 28 28 27 26 27 26 26 27 29 29 28 29 32 34 33 31 31 32 30 26 24 24 23 23 26 28 26 23 22 23 24
6 7 6 7 9 11 13 15 15 16 18 19 20 21 22 22 22 23 23 24 26 29 31 33 35 35 34 34 33 34 35 33 32 30 28 26 25 25 25 26 26 24 24 29 31 29 28 28 26 26 27 27 27 28 27 27 28 30 29 28 27 27 27 27 28 29 29 29 28 28 30 31 31 30 30 28 26 24 24 25 25 24 25 25 24 24 24 24
4 5 6 7 10 12 14 15 16 16 18 19 20 22 23 23 23 22 22 23 26 28 31 34 37 36 35 35 34 34 35 34 32 32 31 28 25 25 26 26 27 24 22 25 30 29 28 29 28 27 28 29 28 29 28 28 30 29 29 28 27 27 27 26 28 28 28 28 29 28 29 29 29 28 27 26 24 23 25 27 26 24 23 23 22 22 22 22
3 5 7 8 10 12 13 14 15 17 19 19 19 19 19 21 22 22 22 24 26 27 29 33 36 37 37 37 34 33 36 37 35 34 34 31 27 26 27 26 26 25 24 25 29 31 30 30 29 28 29 30 30 30 30 32 32 31 29 30 30 29 27 26 28 29 29 28 28 28 28 29 28 26 25 24 23 23 25 26 24 21 20 19 19 19 20 19
2 4 6 8 10 13 13 14 15 17 18 16 13 13 14 16 18 19 20 23 26 26 27 29 32 34 36 37 36 35 36 40 39 36 35 34 30 26 27 28 27 25 25 25 28 32 34 32 30 29 30 31 32 32 33 34 35 34 32 33 34 32 30 29 29 30 30 29 29 28 28 28 27 25 24 23 22 21 21 22 21 19 18 18 19 20 20 20
3 5 6 7 9 12 13 14 15 15 14 12 10 10 12 14 16 16 17 20 22 25 27 28 28 29 31 33 36 36 36 39 42 40 36 36 35 31 29 29 27 25 25 24 24 29 36 36 32 31 31 33 33 34 35 34 34 37 37 35 36 35 34 32 32 33 32 30 29 29 30 29 28 27 26 25 24 21 18 17 17 16 15 17 18 18 19 19
4 6 7 8 9 11 13 14 15 15 12 12 13 12 12 13 15 15 16 17 18 20 24 27 27 27 28 29 31 34 36 38 41 42 39 36 35 33 31 30 27 24 23 22 21 24 33 38 37 34 32 33 35 36 38 36 35 38 40 40 40 39 37 35 35 35 35 32 31 29 29 29 28 26 25 25 26 24 21 19 18 16 15 16 18 18 17 17
5 6 8 10 11 12 14 14 15 16 13 12 14 12 12 12 13 13 15 16 18 18 19 22 24 26 28 28 27 29 31 36 40 42 42 40 34 29 27 28 29 26 23 21 19 21 28 34 39 38 34 34 36 37 39 40 37 36 39 41 42 43 41 38 36 37 37 35 33 30 29 29 28 27 27 26 26 26 24 23 23 22 20 20 21 21 18 17
5 6 8 10 11 12 14 14 15 17 15 12 12 10 10 11 11 12 13 14 16 17 17 18 20 23 24 26 26 25 26 32 37 39 41 42 38 30 23 23 26 27 26 22 17 18 23 28 36 42 40 38 39 38 39 41 40 37 37 39 43 46 43 40 38 37 37 35 33 32 31 32 32 31 31 30 30 29 27 26 26 24 22 21 21 19 17 17
3 5 7 8 9 10 12 13 15 17 15 10 9 9 9 11 11 12 13 13 13 14 16 16 17 18 20 22 23 24 25 29 34 37 38 40 40 36 29 24 24 25 25 23 17 15 19 23 31 42 46 45 43 39 39 40 40 40 38 37 41 46 44 41 40 38 38 36 34 34 34 35 35 33 31 31 29 28 25 22 22 22 21 20 20 19 19 19
3 5 6 8 8 9 11 12 14 15 15 10 7 7 9 10 11 12 11 11 12 11 12 14 15 15 18 20 22 24 24 26 31 35 37 37 38 37 33 29 27 24 23 23 20 15 14 17 23 33 42 45 43 39 39 39 38 39 39 37 37 41 41 41 40 39 39 39 37 37 37 38 37 35 33 31 29 28 26 22 20 21 22 21 20 21 21 20
3 5 6 8 9 11 12 12 13 14 14 12 9 7 8 9 11 12 11 10 10 10 9 11 13 14 15 19 21 22 23 25 28 33 35 35 35 35 35 32 28 25 25 26 24 19 12 9 12 19 28 34 37 37 38 38 37 39 41 40 39 39 39 39 39 38 39 40 39 39 40 40 38 36 34 31 27 25 24 22 21 21 20 19 20 22 21 21
Wind_Direction
263 263 262 261 260 259 259 259 259 260 260 261 261 262 263 264 266 268 269 271 273 274 276 277 278 279 280 281 282 283 284 284 283 284 284 284 284 284 284 283 282 281 280 278 275 270 264 260 257 255 251 245 244 241 241 240 239 242 242 239 233 229 219 194 200 210 210 204 202 203 192 211 244 244 245 246 250 251 251 256 258 255 255 259 261 261 252 245
262 262 263 262 261 260 259 259 259 259 260 260 261 261 262 263 265 267 269 270 272 274 276 277 278 279 280 281 282 282 283 282 282 283 282 283 283 283 282 281 281 280 280 278 274 269 262 258 255 252 248 242 241 239 239 237 238 240 239 235 224 217 205 189 198 205 205 202 202 205 190 200 248 250 249 245 248 251 252 255 259 260 258 257 257 254 246 243
260 260 261 262 262 262 260 260 259 259 259 260 260 261 262 263 264 266 268 269 271 274 275 277 278 279 280 280 281 281 281 281 281 280 281 282 281 281 281 281 280 279 279 276 272 267 262 258 253 249 244 240 239 238 237 236 237 237 236 233 211 197 194 188 194 199 203 202 199 200 187 196 240 250 250 245 246 249 252 253 256 259 258 261 259 249 244 246
261 260 260 260 261 261 261 261 260 260 260 260 261 261 262 263 264 265 266 268 270 272 274 276 277 278 279 280 280 280 280 279 278 279 280 280 280 280 279 278 278 277 276 273 269 265 260 255 249 245 242 238 237 237 236 235 237 237 235 229 202 192 189 185 191 198 202 201 200 198 191 210 234 242 244 242 245 246 251 255 259 263 260 263 258 245 243 248
261 261 260 260 260 261 261 261 260 261 261 261 261 261 262 262 263 264 265 266 268 270 272 274 276 277 278 278 278 278 278 277 277 278 279 278 278 277 276 276 275 274 273 269 265 261 257 252 246 243 240 238 237 237 235 234 236 236 234 223 204 197 186 182 191 197 201 203 206 203 194 217 235 239 241 240 243 246 252 259 267 269 263 257 251 242 242 246
260 260 260 260 260 261 261 261 261 261 262 262 262 262 262 262 262 263 263 265 266 268 270 271 274 275 276 276 276 277 276 275 276 277 275 274 273 273 273 272 270 270 268 264 260 258 254 249 245 242 238 237 237 236 235 234 234 233 232 220 208 201 186 187 195 197 203 205 208 209 200 209 225 235 241 240 242 247 253 261 268 268 258 244 237 236 238 242
261 261 261 261 261 262 262 263 263 262 262 262 262 262 262 262 262 262 262 263 264 266 267 269 271 273 274 274 274 275 274 274 274 273 271 271 270 271 270 267 265 264 262 259 255 253 251 248 244 241 237 236 236 235 233 234 233 231 229 221 210 201 189 192 199 199 205 208 210 213 208 207 217 228 238 241 244 249 254 256 261 260 252 240 230 230 234 240
261 261 262 262 263 263 263 263 263 263 262 262 262 262 262 262 261 261 262 262 263 264 265 267 269 271 272 272 272 273 273 273 273 271 270 269 269 268 266 263 261 258 255 253 249 247 248 246 243 241 238 237 235 233 232 233 234 231 228 223 214 204 193 195 202 203 207 211 214 218 214 210 213 222 230 238 243 249 255 254 252 253 252 246 234 230 233 238
262 262 263 264 264 264 265 265 265 264 264 263 263 263 262 262 261 261 261 261 261 262 263 265 267 269 270 270 270 270 271 272 273 273 272 269 267 265 263 261 257 254 249 246 243 242 243 241 240 239 237 236 234 232 232 233 234 232 228 223 217 208 197 198 203 206 210 213 217 221 222 218 218 223 227 233 240 245 253 254 251 251 254 252 243 236 236 238
263 264 264 265 266 267 267 267 267 266 265 264 264 263 262 262 262 261 261 261 261 261 261 262 264 266 267 268 267 267 270 273 273 273 272 268 263 262 260 256 252 249 244 241 239 237 237 238 238 237 235 235 236 235 235 235 236 235 230 224 218 211 202 201 204 207 212 217 221 225 227 225 226 233 234 238 243 244 250 253 251 253 256 252 245 240 239 239
263 263 264 264 265 266 266 267 267 266 266 265 264 264 263 262 262 261 261 260 260 259 259 260 261 262 264 265 265 267 269 270 270 270 269 266 263 260 256 251 248 244 240 236 234 233 235 237 238 238 237 237 237 237 237 236 236 236 235 230 224 216 208 205 206 208 213 219 225 228 231 232 233 240 244 247 246 243 246 248 248 251 252 249 244 240 238 237
261 262 262 263 263 264 265 265 266 267 267 266 266 265 264 263 262 261 261 260 259 258 258 258 258 259 260 261 263 266 267 265 266 267 268 267 264 260 253 246 242 238 237 234 233 233 234 236 237 238 238 237 235 236 236 236 236 236 237 235 231 224 215 210 209 211 215 220 226 231 236 235 231 237 244 249 247 241 239 241 243 243 244 243 240 237 236 236
261 262 263 263 264 265 266 266 267 267 268 268 268 267 266 264 263 262 261 259 258 257 256 256 256 256 257 258 261 264 264 264 265 266 266 266 264 260 251 242 236 233 234 234 233 233 234 237 238 239 239 238 237 237 238 240 238 237 238 235 232 229 222 217 215 215 218 222 226 231 237 234 228 239 243 246 248 242 237 237 238 238 238 239 238 236 236 238
263 264 265 266 267 267 268 268 268 268 269 269 268 268 267 265 264 262 261 259 257 256 255 254 253 254 254 256 259 261 263 264 265 265 266 265 263 261 252 239 233 231 232 236 236 234 235 237 238 239 241 241 241 240 239 241 240 239 240 239 236 233 225 221 223 222 223 226 228 234 241 238 237 250 247 244 248 244 238 235 235 238 238 239 240 238 238 242
266 267 267 268 269 270 270 271 271 270 270 270 269 269 268 266 265 263 261 259 257 255 254 253 251 251 251 254 256 259 261 263 264 264 265 260 253 256 253 237 231 231 233 237 239 237 236 236 238 240 242 242 241 241 239 239 239 239 241 242 243 241 232 224 226 228 229 232 235 240 247 246 241 246 239 239 246 245 240 237 237 238 237 236 238 238 239 245
268 268 268 269 270 270 271 271 272 272 271 271 270 270 269 268 266 264 262 260 257 255 253 252 250 250 250 252 254 256 259 261 263 264 264 258 244 246 248 239 231 231 234 237 240 240 238 237 237 239 242 242 241 243 242 240 240 240 241 242 243 244 238 230 229 231 233 235 238 243 249 247 237 233 226 228 241 245 242 239 239 241 240 238 240 242 243 247
268 268 268 268 269 270 271 271 271 272 272 272 272 271 270 269 267 265 263 261 259 256 253 251 250 250 249 250 252 254 257 259 262 262 261 257 247 241 240 237 232 231 234 237 240 242 241 238 237 238 241 242 243 244 243 242 243 245 246 243 241 243 240 234 232 234 236 236 236 241 247 245 235 227 220 221 232 241 243 240 238 241 245 247 251 251 243 243
268 268 268 268 269 270 270 271 271 272 272 272 272 271 271 270 269 267 265 262 260 257 253 250 249 249 250 250 249 251 254 256 257 260 259 256 250 241 234 232 231 231 233 236 240 242 243 241 238 237 239 241 244 246 244 243 245 247 245 241 238 238 238 233 227 226 230 235 236 238 244 245 239 229 219 221 228 234 242 243 240 240 245 252 256 252 245 244
269 269 269 269 270 270 271 272 272 272 272 272 272 271 271 270 269 268 266 264 262 260 255 251 249 249 250 248 247 248 251 254 255 257 259 257 252 244 234 230 229 230 232 235 240 243 244 245 242 238 237 241 245 247 245 242 242 242 241 239 235 233 234 234 231 227 225 227 232 237 243 243 238 231 222 224 229 231 240 244 242 238 238 250 251 247 252 258
270 270 271 271 271 272 272 272 272 272 273 272 272 272 271 270 270 269 268 266 264 261 257 253 250 248 249 248 246 246 247 251 254 256 258 258 253 246 238 231 228 228 232 235 239 243 245 246 246 242 239 240 244 245 243 240 240 241 240 240 239 236 235 236 239 238 232 228 228 232 238 237 230 224 216 221 228 230 237 243 242 237 236 246 247 245 260 273
271 271 271 272 272 273 273 273 273 273 273 273 273 274 274 273 272 270 268 267 266 263 260 256 251 248 249 249 245 244 246 247 249 252 254 253 251 246 240 234 229 226 230 235 237 241 246 249 252 246 240 239 241 244 243 240 240 242 242 242 242 241 239 239 240 235 229 230 230 227 227 225 212 200 192 208 226 227 232 239 241 240 240 245 244 247 263 276
270 271 271 272 273 273 273 273 274 274 274 275 276 276 276 275 273 272 269 266 265 262 259 257 254 249 245 249 249 244 245 246 244 245 248 248 246 244 241 234 228 226 229 234 237 242 249 255 251 243 240 239 240 243 243 242 241 241 242 243 243 244 242 242 237 223 219 228 228 222 222 217 196 185 180 204 227 224 226 232 237 244 249 251 250 253 262 271
271 271 271 272 273 274 274 273 274 275 276 277 277 276 275 274 273 272 268 264 261 259 258 257 254 250 243 245 250 246 243 248 247 241 245 247 242 240 240 235 229 227 230 235 239 243 248 249 243 240 240 239 240 242 242 242 242 242 243 244 243 244 246 246 238 225 221 228 224 216 220 217 197 192 190 207 231 222 222 228 232 243 253 255 254 254 257 265
271 272 272 273 275 275 274 273 274 275 276 277 277 277 275 275 273 271 269 266 262 257 256 255 253 253 248 240 244 248 250 251 249 242 241 244 243 242 240 234 229 229 232 237 240 240 242 243 241 241 241 239 239 240 242 243 243 243 244 244 244 243 247 243 229 221 218 223 222 214 219 218 203 200 196 210 233 217 215 223 231 241 245 246 246 246 252 263
272 272 273 275 275 275 274 274 275 275 276 276 276 276 277 277 276 274 271 266 264 260 256 254 253 251 248 243 244 250 253 251 250 246 239 237 242 245 239 233 228 229 231 235 238 236 236 241 242 241 240 240 240 239 241 241 241 242 242 243 243 240 242 230 210 210 211 216 219 212 218 223 210 208 211 222 224 208 208 219 231 239 238 238 242 243 251 263
273 273 274 275 275 274 274 275 275 275 275 275 275 275 275 276 276 275 272 268 267 267 259 254 251 248 244 242 242 245 250 252 250 246 239 233 237 242 241 237 231 229 232 233 234 232 232 238 241 241 240 239 239 239 239 239 237 238 240 242 241 235 232 220 205 207 208 210 215 211 213 224 221 220 225 234 221 206 210 221 230 237 239 240 244 246 252 259
274 274 275 275 275 275 275 275 275 274 274 274 273 272 271 271 272 272 271 271 271 271 262 251 249 247 241 239 239 243 251 253 249 246 241 232 232 238 242 241 234 231 234 234 233 232 233 236 237 239 241 239 240 238 236 237 235 235 236 237 236 229 220 211 204 205 206 207 212 212 209 210 216 218 225 236 228 212 214 223 230 233 236 241 244 247 252 258
274 275 275 275 275 275 275 275 275 274 273 272 270 270 271 270 268 267 267 270 273 270 261 245 240 238 234 236 237 238 243 245 248 250 246 234 232 237 241 239 232 229 234 234 231 231 234 235 234 233 235 237 238 236 233 233 234 233 234 234 232 220 207 204 204 202 205 208 206 206 207 203 206 211 219 232 235 221 218 223 230 232 233 237 241 248 256 265
275 275 275 275 275 274 275 275 274 274 274 272 270 271 271 269 267 265 264 267 267 260 252 229 230 232 230 232 230 230 234 234 238 247 247 239 235 237 237 235 228 226 232 232 225 228 233 234 234 232 230 231 230 230 231 232 232 228 228 232 227 212 203 203 204 201 206 211 204 203 208 204 202 206 212 224 234 231 225 226 232 235 233 233 241 251 262 271
276 276 275 275 274 274 274 274 273 272 272 272 272 271 268 266 266 264 264 265 259 251 244 222 219 225 227 228 224 222 231 232 231 239 242 238 237 235 231 231 229 226 231 231 224 227 231 231 235 236 232 227 223 225 226 224 222 221 227 234 225 207 201 202 202 201 208 214 209 208 214 212 208 210 213 219 228 235 235 235 236 236 234 234 241 252 261 268
276 275 275 274 273 273 273 273 272 270 269 269 271 270 267 265 264 265 266 259 243 239 235 225 224 223 224 233 230 223 229 236 237 240 240 235 237 238 232 231 231 230 234 234 230 229 231 232 237 240 234 222 219 223 225 221 214 215 224 233 225 206 200 200 200 204 211 214 212 214 220 219 216 218 220 222 228 235 239 243 242 239 236 236 239 248 258 265
274 274 274 275 274 273 272 270 270 269 267 265 265 266 265 264 264 265 261 248 232 223 216 218 226 226 222 230 238 232 231 236 239 244 244 239 238 240 234 230 230 231 234 236 234 234 235 235 237 240 235 222 218 220 222 223 220 218 216 213 211 203 199 200 202 208 215 217 214 215 222 225 225 226 226 226 229 234 238 240 239 237 236 235 237 245 254 260
272 272 272 273 274 274 272 269 268 269 267 264 262 261 261 263 263 257 253 243 222 212 208 213 225 231 229 226 229 233 231 231 233 238 243 240 237 236 230 227 227 226 228 229 228 229 230 231 233 237 235 226 220 218 217 217 219 220 211 201 198 196 197 200 204 211 218 220 217 216 222 230 234 233 230 227 224 227 232 230 226 226 229 233 237 241 247 251
269 270 270 271 272 272 271 268 267 268 268 265 263 261 261 262 256 247 241 221 206 210 214 219 223 228 232 225 218 224 225 224 228 231 237 239 235 231 224 224 226 224 223 224 223 221 219 220 227 233 235 231 224 213 208 207 210 209 201 196 193 192 195 200 207 215 220 223 221 218 222 230 235 235 234 231 222 219 221 218 213 215 219 226 232 236 239 242
268 269 269 269 269 269 269 268 266 266 267 265 264 263 260 255 246 240 233 216 211 219 222 222 216 216 224 219 210 217 218 219 229 230 233 237 235 227 215 214 222 223 222 224 223 223 219 213 218 226 229 228 222 204 197 198 202 202 198 200 198 194 197 201 208 217 221 223 221 219 222 228 232 234 234 232 222 215 215 216 215 215 217 221 228 234 238 241
269 269 269 269 270 271 269 268 266 264 264 263 262 259 254 248 241 236 232 222 218 221 221 217 212 212 218 215 209 214 216 218 230 227 227 236 236 224 209 205 214 220 222 221 220 225 225 216 212 215 217 214 209 200 194 195 200 203 202 206 206 202 202 201 206 214 217 218 218 219 224 228 232 234 233 232 225 216 215 220 221 220 220 223 228 234 240 246
273 272 271 272 274 275 274 272 270 267 265 263 260 256 251 248 244 238 234 227 219 215 215 215 215 216 217 214 209 213 216 220 227 222 221 234 234 223 216 213 213 216 218 217 213 215 223 222 215 211 211 211 207 198 194 199 207 212 212 211 209 210 212 207 207 214 215 216 220 222 225 229 233 236 236 237 234 225 227 231 229 228 228 229 231 234 239 246
276 275 274 276 277 276 275 274 272 268 264 261 259 257 253 249 246 240 235 231 224 217 213 214 219 221 217 212 207 211 219 225 228 224 221 231 232 224 220 219 216 214 217 218 214 212 216 219 215 210 209 210 208 199 194 202 208 213 217 212 204 211 219 214 211 213 213 214 220 224 227 230 235 238 241 243 242 237 242 245 241 240 237 231 230 233 235 239
274 274 278 282 282 281 281 281 278 275 270 266 263 259 255 249 245 241 237 234 231 225 218 214 219 223 220 215 211 211 218 226 230 229 226 228 230 223 219 220 218 216 217 218 216 214 216 217 212 208 208 207 208 206 200 201 206 211 217 212 200 204 215 213 214 216 215 216 221 224 228 231 233 237 239 241 241 236 238 244 245 243 240 233 229 231 232 233
273 275 281 289 290 289 290 287 283 279 273 269 266 261 257 252 248 246 242 238 236 232 225 218 219 223 223 220 216 213 217 225 228 229 227 224 224 223 222 224 224 223 220 219 217 215 215 217 211 205 208 209 208 210 203 197 202 210 219 219 204 199 204 208 214 219 219 222 226 227 230 231 233 236 237 237 238 232 230 241 244 237 233 233 232 232 232 232
276 279 287 295 296 295 294 291 287 281 275 270 267 262 258 254 250 249 245 240 238 235 230 225 223 223 222 222 220 213 215 223 226 225 225 222 220 222 224 224 227 229 226 221 220 217 214 217 213 203 206 210 211 212 201 192 198 206 215 221 211 203 206 208 213 218 218 222 228 229 231 232 232 235 237 238 239 236 234 238 238 230 227 230 230 231 233 234
280 288 302 313 312 309 307 303 298 291 284 278 272 266 262 257 253 251 250 244 239 237 235 230 227 225 222 223 222 214 212 220 224 220 220 222 222 225 228 227 227 231 229 221 220 220 217 218 215 205 205 208 215 219 206 191 197 203 207 217 217 212 213 213 216 219 219 221 226 228 231 233 232 233 238 241 241 243 241 234 228 226 228 230 228 229 232 235
282 300 322 326 319 317 315 311 304 295 287 280 274 269 264 260 254 250 248 245 241 238 236 231 230 230 228 226 224 216 211 216 222 221 220 223 226 228 230 230 228 228 229 224 223 225 222 221 218 210 206 208 215 223 215 199 199 202 204 212 217 218 218 217 218 222 223 225 228 229 231 234 235 235 240 241 238 240 238 231 224 219 223 229 229 229 230 233
293 319 333 328 322 323 323 317 308 300 293 283 276 271 267 263 258 250 245 243 241 238 236 235 233 232 232 231 228 220 214 215 221 224 223 224 228 230 230 231 231 230 231 231 229 228 226 225 223 214 209 209 214 223 222 210 202 200 203 210 214 218 221 221 220 222 225 227 229 230 231 234 238 240 242 241 237 234 233 233 229 220 216 223 227 227 228 229
314 331 334 327 326 329 330 324 315 306 295 285 277 275 275 274 268 260 253 249 245 240 238 237 237 236 235 236 232 224 217 216 220 225 227 228 231 236 235 234 233 233 235 236 235 230 226 226 225 219 213 211 214 223 226 217 207 202 203 210 214 217 221 224 224 223 224 227 230 233 234 235 238 241 242 241 236 232 232 237 239 232 227 231 235 233 231 231
337 335 332 327 328 332 332 328 324 313 292 274 273 280 281 281 278 269 262 259 255 249 244 239 238 238 239 238 235 230 223 218 220 225 228 230 234 239 239 236 236 238 239 240 240 232 226 225 225 223 219 214 215 224 229 224 215 208 205 210 215 218 221 225 228 226 224 226 229 233 236 238 240 241 241 240 238 240 243 246 245 240 238 240 240 236 231 229
335 333 334 333 334 337 336 332 330 323 297 265 266 279 281 281 280 272 265 264 263 258 252 246 240 237 237 236 235 235 231 224 221 224 227 230 233 239 240 237 236 238 239 243 246 238 229 228 227 225 224 220 217 221 227 227 220 212 207 208 213 218 220 224 229 232 231 229 229 230 232 236 239 241 243 244 245 245 247 249 248 244 241 240 238 237 237 236
329 335 337 337 340 344 342 338 335 333 316 278 267 276 284 284 283 277 272 269 265 259 255 251 244 238 236 236 235 235 233 228 225 225 227 229 231 236 242 241 238 237 239 244 249 244 236 233 230 226 224 224 222 222 226 227 224 219 216 213 213 216 220 222 227 234 237 236 235 233 233 234 237 241 246 248 248 248 248 247 246 246 250 249 245 243 245 243
328 336 335 340 346 346 343 341 338 337 330 298 272 274 290 297 297 291 286 281 269 257 252 250 244 238 235 236 237 235 230 226 227 228 228 229 230 233 240 243 242 242 244 243 244 246 242 238 233 228 225 226 225 223 225 228 227 226 227 225 220 218 219 220 222 230 236 239 240 240 241 241 242 246 249 249 250 253 254 251 250 251 252 246 241 241 242 241
328 333 332 343 352 345 341 344 343 343 341 319 280 276 295 309 313 304 296 293 282 260 245 243 242 239 234 231 233 233 227 223 225 227 230 230 231 233 236 238 239 241 243 242 237 239 241 238 233 229 226 228 229 227 227 230 230 230 233 233 225 218 217 218 219 225 232 237 240 242 244 245 246 248 250 251 252 254 256 254 249 244 239 232 231 236 241 243
327 334 337 348 353 346 346 350 349 348 349 339 308 286 294 309 317 312 301 295 294 277 250 241 241 241 236 228 225 226 224 221 220 221 226 229 230 231 231 232 233 230 231 234 229 221 227 234 232 227 225 228 231 232 232 233 234 233 233 232 225 218 217 218 218 222 229 233 238 242 243 246 248 248 248 250 252 252 252 247 234 229 230 231 234 238 240 243
337 340 350 356 353 349 351 354 352 352 354 350 334 303 291 299 308 313 309 296 292 290 270 250 243 239 232 225 223 222 220 219 216 215 220 224 226 226 225 227 229 225 222 224 218 205 200 219 229 222 221 227 231 232 234 236 237 235 233 231 227 224 223 222 223 228 232 234 238 242 243 243 245 246 246 247 246 240 234 226 220 224 231 233 236 239 238 238